Overview Statistics Trail Chart Weather Telemetry Raw packets
 

This is the latest recevied weather packets stored in our database for station/object SV9TNF-55. If no packets are shown the sender has not sent any weather packets the latest 10 day(s).

<< 19 20 21 22 23 24 25 >>
Time Temp. Humidity Pressure Rain* Wind** Luminosity Snow
1788365261 22.78° C 44% 1014.2 hPa 0 mm 1.79 m/s, 292° - -
1788364661 22.78° C 50% 1014.2 hPa 0 mm 1.34 m/s, 337° - -
1788364062 22.78° C 50% 1014.2 hPa 0 mm 1.79 m/s, 315° - -
1788363461 22.78° C 54% 1014.2 hPa 0 mm 2.24 m/s, 292° - -
1788362861 22.78° C 51% 1014.1 hPa 0 mm 1.79 m/s, 315° - -
1788362261 22.78° C 51% 1014.1 hPa 0 mm 1.79 m/s, 315° - -
1788361661 22.78° C 60% 1014.1 hPa 0 mm 1.34 m/s, 270° - -
1788361061 23.33° C 58% 1014.3 hPa 0 mm 1.79 m/s, 315° - -
1788360461 23.33° C 58% 1014.3 hPa 0 mm 1.79 m/s, 315° - -
1788359860 23.89° C 56% 1014.2 hPa 0 mm 1.79 m/s, 315° - -
1788359261 23.89° C 51% 1014.3 hPa 0 mm 1.79 m/s, 292° - -
1788358659 24.44° C 53% 1014.3 hPa 0 mm 1.79 m/s, 315° - -
1788358060 24.44° C 50% 1014.3 hPa 0 mm 1.79 m/s, 315° - -
1788357460 24.44° C 52% 1014.2 hPa 0 mm 2.24 m/s, 292° - -
1788356860 23.89° C 50% 1014.3 hPa 0 mm 2.24 m/s, 315° - -
1788356259 23.89° C 56% 1014.5 hPa 0 mm 2.24 m/s, 337° - -
1788355659 23.89° C 54% 1014.4 hPa 0 mm 2.68 m/s, 337° - -
1788355060 23.89° C 54% 1014.4 hPa 0 mm 2.68 m/s, 337° - -
1788354459 25° C 49% 1014.4 hPa 0 mm 2.68 m/s, 337° - -
1788353859 25° C 49% 1014.4 hPa 0 mm 2.68 m/s, 337° - -
1788353258 24.44° C 50% 1015 hPa 0 mm 3.13 m/s, 315° - -
1788352658 24.44° C 50% 1015 hPa 0 mm 3.13 m/s, 315° - -
1788352058 24.44° C 50% 1015 hPa 0 mm 3.13 m/s, 315° - -
1788351458 24.44° C 50% 1015 hPa 0 mm 3.13 m/s, 315° - -
1788350858 24.44° C 50% 1015 hPa 0 mm 3.13 m/s, 315° - -

* Rain latest hour (hover to see other rain measurements)
** Current wind speed in m/s (hover to see current wind gust speed)